Orbital Elements at Epoch 2459000.5 (2020-May-31.0) TDB
Reference: JPL 12 (heliocentric ecliptic J2000)
Element | Value | Uncertainty (1-sigma) | Units |
e | .04076011101441171 | 1.0971e-07 | |
a | 2.986581727443749 | 3.1726e-08 | au |
q | 2.864848324679528 | 3.34e-07 | au |
i | 9.575003619642136 | 7.8128e-06 | deg |
node | 285.756346758197 | 5.6e-05 | deg |
peri | 255.5240376075904 | 9.8592e-05 | deg |
M | 66.14863250581253 | 8.0351e-05 | deg |
tp | 2458654.099586298613 (2019-Jun-19.59958630) | 0.00042193 | TDB |
period | 1885.211291730654 5.16 | 3.0039e-05 8.224e-08 | d yr |
n | .1909600274404861 | 3.0428e-09 | deg/d |
Q | 3.10831513020797 | 3.3019e-08 | au |
|
| | Orbit Determination Parameters
Additional Information
|